Location: Pl�tzky
(52.0521°N, 11.8020°E)
Time: 05:33:08
(UTC+00:00)

ERBS - Pass Details

Date: 22 November 2019
Orbit: 411 x 430 km, 57.0° (Epoch: 13 December)

Event Time Altitude Azimuth Distance (km) Brightness Sun altitude
Rises 16:20:48 0° 249° (WSW) 2,344 8.4 -10.2°
Reaches altitude 10° 16:22:53 10° 253° (WSW) 1,486 6.7 -10.5°
Maximum altitude 16:26:11 65° 336° (NNW) 461 2.4 -10.9°
Enters shadow 16:28:34 18° 56° (NE) 1,125 3.8 -11.3°
